FW6298 Chalkida GR current weather conditions

sailwx.info

Wind from 122 at 5 knots gusting 11

Air temperature 25.0° C
Dewpoint 19.4° C

Last reported at 2020-Aug-06 12:10 UTC.
Time now 2020-Aug-06 13:16 UTC

Location: N 38°56' E 023°22'.
View on Google Maps.

See reports from other nearby stations

  
Tides and Currents Weather Stations Pressure Air Temp Water Temp Dewpoint Dewpoint Depression Visibility Wind Speed Wind Dir Waves Ship Positions
date/time (UTC)wind fromknots sea level pressurealtimeterstation pressurevisibilityair tempwater tempwave heightnotes
2020-Aug-06 12:10 122 5 gusting 11 25.0
2020-Aug-06 12:05 095 5 gusting 11 25.0
2020-Aug-06 12:00 090 4 gusting 11 25.0
2020-Aug-06 11:55 117 4 gusting 10 25.6
2020-Aug-06 11:50 088 6 gusting 10 25.0
2020-Aug-06 11:45 121 5 gusting 10 24.4
2020-Aug-06 11:40 154 4 gusting 10 25.6
2020-Aug-06 11:35 082 5 gusting 10 25.6
2020-Aug-06 11:30 067 4 gusting 10 25.6
2020-Aug-06 11:25 119 4 gusting 10 25.6
2020-Aug-06 11:20 089 4 gusting 10 25.0
2020-Aug-06 11:15 070 3 gusting 9 25.0
2020-Aug-06 11:10 053 4 gusting 9 25.0
2020-Aug-06 11:05 116 4 gusting 8 25.0
2020-Aug-06 11:00 031 4 gusting 8 26.1
2020-Aug-06 10:55 063 4 gusting 8 26.1
2020-Aug-06 10:50 077 4 gusting 8 25.6
2020-Aug-06 10:45 144 4 gusting 8 25.0
2020-Aug-06 10:40 113 4 gusting 8 25.6
2020-Aug-06 10:34 094 3 gusting 8 25.0
2020-Aug-06 10:29 135 3 gusting 8 23.9
2020-Aug-06 10:24 125 3 gusting 8 23.9
2020-Aug-06 10:19 150 3 gusting 8 24.4
2020-Aug-06 10:14 090 2 gusting 8 24.4
2020-Aug-06 10:09 040 1 gusting 7 24.4
2020-Aug-06 10:04 141 1 gusting 7 23.9
2020-Aug-06 09:59 123 2 gusting 8 24.4
2020-Aug-06 09:54 102 1 gusting 8 24.4
2020-Aug-06 09:49 161 1 gusting 6 23.9
2020-Aug-06 09:44 097 2 gusting 7 23.9
2020-Aug-06 09:39 121 3 gusting 7 24.4
2020-Aug-06 09:34 046 3 gusting 8 23.9
2020-Aug-06 09:29 093 4 gusting 8 23.9
2020-Aug-06 09:24 102 4 gusting 7 23.3
2020-Aug-06 09:19 136 4 gusting 9 23.3
2020-Aug-06 09:14 108 4 gusting 9 23.9
2020-Aug-06 09:09 116 4 gusting 9 24.4
2020-Aug-06 09:04 106 3 gusting 8 23.9
2020-Aug-06 08:59 077 4 gusting 8 23.3
2020-Aug-06 08:54 040 4 gusting 8 23.3
2020-Aug-06 08:49 098 4 gusting 8 23.3
2020-Aug-06 08:44 028 4 gusting 8 23.3
2020-Aug-06 08:39 142 4 gusting 10 23.3
2020-Aug-06 08:34 144 5 gusting 13 23.3
2020-Aug-06 08:29 117 4 gusting 13 23.3
2020-Aug-06 08:24 052 4 gusting 13 23.9
2020-Aug-06 08:19 059 4 gusting 10 23.9
2020-Aug-06 08:14 123 5 gusting 10 23.3
2020-Aug-06 08:09 084 5 gusting 10 23.9
2020-Aug-06 08:04 055 4 gusting 9 23.9
2020-Aug-06 07:59 057 4 gusting 9 23.9
2020-Aug-06 07:54 053 4 gusting 9 23.3
2020-Aug-06 07:49 136 4 gusting 9 22.8
2020-Aug-06 07:44 100 4 gusting 10 23.3
2020-Aug-06 07:39 092 5 gusting 10 22.8
2020-Aug-06 07:34 113 5 gusting 11 23.3
2020-Aug-06 07:29 113 4 gusting 11 23.3
2020-Aug-06 07:24 073 3 gusting 11 23.3
2020-Aug-06 07:19 135 4 gusting 8 22.8
2020-Aug-06 07:14 115 6 gusting 11 22.8
2020-Aug-06 07:09 097 6 gusting 11 22.8
2020-Aug-06 07:04 155 4 gusting 10 22.8
2020-Aug-06 06:59 113 4 gusting 9 22.2
2020-Aug-06 06:54 121 4 gusting 10 22.2
2020-Aug-06 06:49 049 4 gusting 10 22.2
2020-Aug-06 06:44 087 4 gusting 9 22.8
2020-Aug-06 06:39 073 5 gusting 9 22.2
2020-Aug-06 06:34 107 4 gusting 9 22.2
2020-Aug-06 06:29 066 4 gusting 8 22.8
2020-Aug-06 06:24 090 4 gusting 9 22.8
2020-Aug-06 06:19 090 4 gusting 9 22.8
2020-Aug-06 06:14 126 4 gusting 8 23.3
2020-Aug-06 06:09 099 3 gusting 8 22.8
2020-Aug-06 06:04 064 3 gusting 7 22.8
2020-Aug-06 05:59 090 3 gusting 8 22.8
2020-Aug-06 05:54 096 3 gusting 8 22.8
2020-Aug-06 05:49 105 3 gusting 7 22.8
2020-Aug-06 05:44 112 2 gusting 7 23.3
2020-Aug-06 05:39 090 2 gusting 7 23.3
2020-Aug-06 05:34 021 2 gusting 7 22.8
2020-Aug-06 05:29 094 2 gusting 6 22.8
2020-Aug-06 05:23 122 2 gusting 6 22.8
2020-Aug-06 05:18 046 2 gusting 7 22.8
2020-Aug-06 05:13 088 3 gusting 7 22.2
2020-Aug-06 05:08 094 2 gusting 7 22.2
2020-Aug-06 05:03 117 2 gusting 7 22.2
2020-Aug-06 04:58 107 2 gusting 7 22.2
2020-Aug-06 04:54 076 3 gusting 7 22.2
2020-Aug-06 04:48 117 2 gusting 6 21.7
2020-Aug-06 04:43 132 2 gusting 8 21.7
2020-Aug-06 04:38 040 2 gusting 8 21.7
2020-Aug-06 04:33 094 2 gusting 6 21.7
2020-Aug-06 04:28 099 1 gusting 6 21.7
2020-Aug-06 04:23 080 1 gusting 6 21.7
2020-Aug-06 04:18 121 2 gusting 6 21.7
2020-Aug-06 04:13 078 1 gusting 6 21.1
2020-Aug-06 04:08 126 1 gusting 8 21.1
2020-Aug-06 04:03 121 1 gusting 8 21.1
2020-Aug-06 03:58 069 1 gusting 6 21.1
2020-Aug-06 03:53 052 0 gusting 5 21.1
2020-Aug-06 03:48 066 0 gusting 3 21.1
2020-Aug-06 03:43 055 0 gusting 6 21.1
2020-Aug-06 03:38 113 0 gusting 6 21.1
2020-Aug-06 03:33 067 21.1
2020-Aug-06 03:28 150 0 gusting 3 21.1
2020-Aug-06 03:23 042 0 gusting 5 21.1
2020-Aug-06 03:18 154 0 gusting 5 21.1
2020-Aug-06 03:13 117 0 gusting 5 21.7
2020-Aug-06 03:08 013 0 gusting 5 21.7
2020-Aug-06 03:03 096 0 gusting 3 21.7
2020-Aug-06 02:58 051 21.7
2020-Aug-06 02:53 049 0 gusting 3 21.7
2020-Aug-06 02:48 069 2 gusting 8 21.7
2020-Aug-06 02:43 053 5 gusting 9 21.7
2020-Aug-06 02:38 053 5 gusting 9 21.7
2020-Aug-06 02:33 067 4 gusting 8 21.7
2020-Aug-06 02:28 042 3 gusting 9 21.7
2020-Aug-06 02:23 047 3 gusting 9 21.7
2020-Aug-06 02:18 084 1 gusting 6 21.7
2020-Aug-06 02:13 123 2 gusting 7 22.2
2020-Aug-06 02:08 119 3 gusting 9 22.2
2020-Aug-06 02:03 097 3 gusting 9 22.2
2020-Aug-06 01:58 043 3 gusting 9 21.7
2020-Aug-06 01:53 084 2 gusting 9 22.2
2020-Aug-06 01:48 089 1 gusting 9 21.7
2020-Aug-06 01:43 101 3 gusting 9 22.2
2020-Aug-06 01:38 112 2 gusting 7 22.2
2020-Aug-06 01:33 009 1 gusting 7 21.7
2020-Aug-06 01:28 078 1 gusting 6 21.7
2020-Aug-06 01:23 130 1 gusting 7 21.7
2020-Aug-06 01:18 096 2 gusting 7 21.7
2020-Aug-06 01:13 121 1 gusting 6 21.7
2020-Aug-06 01:08 121 0 gusting 6 21.7
2020-Aug-06 01:03 063 0 gusting 6 21.7
2020-Aug-06 00:58 134 1 gusting 6 21.7
2020-Aug-06 00:53 103 2 gusting 8 21.7
2020-Aug-06 00:48 082 1 gusting 8 21.7
2020-Aug-06 00:43 121 0 gusting 4 21.7
2020-Aug-06 00:38 096 1 gusting 9 21.7
2020-Aug-06 00:33 157 1 gusting 9 21.7
2020-Aug-06 00:28 074 0 gusting 5 21.7
2020-Aug-06 00:23 136 21.7
2020-Aug-06 00:18 084 21.7
2020-Aug-06 00:13 093 0 gusting 4 21.7
2020-Aug-06 00:08 082 0 gusting 4 21.7
2020-Aug-06 00:03 115 21.7
2020-Aug-05 23:58 078 21.7
2020-Aug-05 23:53 074 1 gusting 6 21.7
2020-Aug-05 23:48 049 1 gusting 7 21.7
2020-Aug-05 23:43 058 2 gusting 7 21.7
2020-Aug-05 23:38 050 2 gusting 6 22.2
2020-Aug-05 23:33 071 1 gusting 6 22.2
2020-Aug-05 23:28 040 1 gusting 6 22.2
2020-Aug-05 23:23 053 2 gusting 7 22.2
2020-Aug-05 23:18 054 2 gusting 7 22.2
2020-Aug-05 23:13 059 2 gusting 7 21.7
2020-Aug-05 23:08 082 1 gusting 7 21.7
2020-Aug-05 23:03 063 1 gusting 6 21.7
2020-Aug-05 22:58 010 1 gusting 5 21.7
2020-Aug-05 22:53 046 1 gusting 6 21.7
2020-Aug-05 22:48 21.7
2020-Aug-05 22:43 042 21.7
2020-Aug-05 22:38 062 21.7
2020-Aug-05 22:33 030 21.7
2020-Aug-05 22:28 049 21.7
2020-Aug-05 22:23 037 0 gusting 3 21.7
2020-Aug-05 22:18 059 21.7
2020-Aug-05 22:13 047 22.2
2020-Aug-05 22:08 044 22.2
2020-Aug-05 22:03 055 22.2
2020-Aug-05 21:58 058 22.2
2020-Aug-05 21:53 058 21.7
2020-Aug-05 21:48 055 21.7
2020-Aug-05 21:43 055 21.7
2020-Aug-05 21:38 091 22.2
2020-Aug-05 21:33 091 22.2
2020-Aug-05 21:28 091 22.2
2020-Aug-05 21:23 091 22.8
2020-Aug-05 21:18 210 22.2
2020-Aug-05 21:13 212 22.2
2020-Aug-05 21:08 212 22.2
2020-Aug-05 21:03 212 22.8
2020-Aug-05 20:58 212 22.8
2020-Aug-05 20:53 211 22.8
2020-Aug-05 20:48 265 22.8
2020-Aug-05 20:43 281 22.2
2020-Aug-05 20:38 250 22.8
2020-Aug-05 20:33 250 22.8
2020-Aug-05 20:28 263 1 gusting 6 22.8
2020-Aug-05 20:23 281 1 gusting 6 21.7
2020-Aug-05 20:18 275 21.7
2020-Aug-05 20:13 290 21.7
2020-Aug-05 20:08 263 21.7
2020-Aug-05 20:03 253 21.7
2020-Aug-05 19:58 258 21.7
2020-Aug-05 19:53 258 21.7
2020-Aug-05 19:48 258 21.7
2020-Aug-05 19:43 258 21.7
2020-Aug-05 19:38 258 21.7
2020-Aug-05 19:33 258 21.7
2020-Aug-05 19:28 240 21.1
2020-Aug-05 19:23 269 21.1
2020-Aug-05 19:18 250 21.1
2020-Aug-05 19:13 236 21.1
2020-Aug-05 19:08 248 21.1
2020-Aug-05 19:03 238 21.1
2020-Aug-05 18:58 263 21.1
2020-Aug-05 18:53 250 21.1
2020-Aug-05 18:48 234 21.7
2020-Aug-05 18:43 254 21.7
2020-Aug-05 18:38 234 21.7
2020-Aug-05 18:32 231 21.7
2020-Aug-05 18:27 231 21.7
2020-Aug-05 18:22 232 21.7
2020-Aug-05 18:17 232 21.7
2020-Aug-05 18:12 232 21.7
2020-Aug-05 18:07 232 21.7
2020-Aug-05 18:02 224 21.7
2020-Aug-05 17:57 222 21.7
2020-Aug-05 17:52 222 21.7
2020-Aug-05 17:47 234 21.7
2020-Aug-05 17:42 195 21.7
2020-Aug-05 17:37 195 21.7
2020-Aug-05 17:32 203 21.7
2020-Aug-05 17:27 184 22.2
2020-Aug-05 17:22 211 22.2
2020-Aug-05 17:17 243 22.2
2020-Aug-05 17:12 208 0 gusting 6 22.2
2020-Aug-05 17:07 170 1 gusting 6 22.2
2020-Aug-05 17:02 185 1 gusting 4 22.2
2020-Aug-05 16:57 049 2 gusting 8 22.8
2020-Aug-05 16:52 088 4 gusting 8 22.8
2020-Aug-05 16:47 159 3 gusting 7 23.3
2020-Aug-05 16:42 186 2 gusting 6 23.3
2020-Aug-05 16:37 232 1 gusting 6 23.3
2020-Aug-05 16:32 181 1 gusting 5 23.3
2020-Aug-05 16:27 169 1 gusting 5 22.8
2020-Aug-05 16:22 208 0 gusting 3 22.8
2020-Aug-05 16:17 197 23.3
2020-Aug-05 16:12 137 0 gusting 4 23.3
2020-Aug-05 16:07 135 0 gusting 4 23.3
2020-Aug-05 16:02 154 1 gusting 5 23.3
2020-Aug-05 15:57 134 2 gusting 6 23.3
2020-Aug-05 15:52 191 2 gusting 6 23.3
2020-Aug-05 15:47 161 2 gusting 6 23.9
2020-Aug-05 15:42 162 2 gusting 6 23.3
2020-Aug-05 15:37 094 3 gusting 7 23.9
2020-Aug-05 15:32 094 3 gusting 7 23.9
2020-Aug-05 15:27 130 3 gusting 6 23.9
2020-Aug-05 15:22 142 3 gusting 10 23.9
2020-Aug-05 15:17 159 3 gusting 10 23.9
2020-Aug-05 15:12 134 4 gusting 8 24.4
2020-Aug-05 15:07 161 3 gusting 8 23.9
2020-Aug-05 15:02 109 2 gusting 7 23.3
2020-Aug-05 14:57 114 4 gusting 9 23.9
2020-Aug-05 14:52 148 4 gusting 9 23.9
2020-Aug-05 14:47 164 4 gusting 8 23.9
2020-Aug-05 14:42 148 4 gusting 8 25.0
2020-Aug-05 14:37 138 3 gusting 7 24.4
2020-Aug-05 14:32 113 2 gusting 6 24.4
2020-Aug-05 14:27 132 4 gusting 9 24.4
2020-Aug-05 14:22 212 4 gusting 9 24.4
2020-Aug-05 14:17 137 3 gusting 8 24.4
2020-Aug-05 14:12 193 3 gusting 8 25.0
2020-Aug-05 14:07 134 4 gusting 8 25.0
2020-Aug-05 14:02 112 4 gusting 10 25.0
2020-Aug-05 13:57 115 5 gusting 10 25.0
2020-Aug-05 13:52 157 5 gusting 10 25.0
2020-Aug-05 13:47 119 5 gusting 10 25.6
2020-Aug-05 13:42 077 4 gusting 9 25.6
2020-Aug-05 13:37 133 4 gusting 9 25.0
2020-Aug-05 13:32 130 4 gusting 9 25.6
2020-Aug-05 13:27 147 4 gusting 9 26.1
2020-Aug-05 13:22 155 3 gusting 8 26.1
2020-Aug-05 13:17 196 4 gusting 8 25.6
2020-Aug-05 13:12 146 4 gusting 9 25.6
2020-Aug-05 13:07 196 4 gusting 9 25.6
2020-Aug-05 13:02 107 4 gusting 7 26.7
2020-Aug-05 12:57 168 4 gusting 9 26.1
2020-Aug-05 12:52 192 4 gusting 9 26.1
2020-Aug-05 12:47 144 4 gusting 11 25.6
2020-Aug-05 12:42 117 5 gusting 11 26.1
2020-Aug-05 12:37 099 3 gusting 10 26.1
2020-Aug-05 12:32 184 3 gusting 10 26.1
2020-Aug-05 12:27 171 4 gusting 10 25.6
2020-Aug-05 12:22 101 5 gusting 11 25.6
2020-Aug-05 12:17 124 6 gusting 11 25.0
2020-Aug-05 12:12 161 5 gusting 9 25.6
2020-Aug-05 12:07 119 5 gusting 9 26.1
2020-Aug-05 12:02 169 5 gusting 9 26.1
2020-Aug-05 11:57 115 4 gusting 9 26.7
2020-Aug-05 11:52 135 4 gusting 9 27.2
2020-Aug-05 11:47 095 4 gusting 8 28.3
2020-Aug-05 11:42 092 3 gusting 10 27.8
2020-Aug-05 11:37 038 3 gusting 10 27.2
2020-Aug-05 11:32 069 4 gusting 9 27.2
2020-Aug-05 11:27 166 4 gusting 10 27.2
2020-Aug-05 11:22 123 4 gusting 11 26.7
2020-Aug-05 11:17 186 4 gusting 11 27.2
2020-Aug-05 11:12 109 5 gusting 11 27.8
2020-Aug-05 11:07 085 5 gusting 12 26.7
2020-Aug-05 11:02 134 4 gusting 12 26.1
2020-Aug-05 10:57 182 5 gusting 10 26.1
2020-Aug-05 10:52 100 5 gusting 11 26.7
2020-Aug-05 10:47 128 6 gusting 11 26.7
2020-Aug-05 10:42 160 5 gusting 11 26.7
2020-Aug-05 10:37 142 4 gusting 11 26.1
2020-Aug-05 10:32 179 4 gusting 11 26.7
2020-Aug-05 10:27 119 4 gusting 10 27.2
2020-Aug-05 10:22 164 3 gusting 10 26.7
2020-Aug-05 10:17 119 3 gusting 7 27.2
2020-Aug-05 10:12 050 4 gusting 8 26.7
2020-Aug-05 10:07 102 4 gusting 8 26.7
2020-Aug-05 10:02 111 5 gusting 12 26.7
2020-Aug-05 09:57 090 5 gusting 12 26.7
2020-Aug-05 09:52 217 4 gusting 9 27.2
2020-Aug-05 09:47 167 4 gusting 10 27.2
2020-Aug-05 09:42 071 3 gusting 10 27.8
2020-Aug-05 09:37 107 4 gusting 10 27.2
2020-Aug-05 09:32 117 4 gusting 10 26.7
2020-Aug-05 09:27 030 3 gusting 10 26.7
2020-Aug-05 09:22 078 3 gusting 10 27.2
2020-Aug-05 09:17 045 2 gusting 7 26.1
2020-Aug-05 09:12 151 2 gusting 6 26.7
2020-Aug-05 09:07 045 3 gusting 7 26.7
2020-Aug-05 09:02 032 3 gusting 7 26.7
2020-Aug-05 08:57 031 3 gusting 8 25.6
2020-Aug-05 08:52 126 3 gusting 8 26.1
2020-Aug-05 08:47 144 3 gusting 8 25.6
2020-Aug-05 08:42 102 3 gusting 9 26.1
2020-Aug-05 08:37 144 4 gusting 9 25.6
2020-Aug-05 08:32 107 3 gusting 10 25.6
2020-Aug-05 08:27 125 3 gusting 10 25.6
2020-Aug-05 08:22 093 4 gusting 10 25.0
2020-Aug-05 08:17 094 5 gusting 10 25.0
2020-Aug-05 08:12 111 4 gusting 10 25.0
2020-Aug-05 08:07 143 4 gusting 8 25.6
2020-Aug-05 08:02 101 4 gusting 9 24.4
2020-Aug-05 07:57 171 5 gusting 9 24.4
2020-Aug-05 07:52 083 5 gusting 8 24.4
2020-Aug-05 07:47 127 5 gusting 9 24.4
2020-Aug-05 07:42 095 5 gusting 9 24.4
2020-Aug-05 07:37 161 4 gusting 10 24.4
2020-Aug-05 07:32 111 4 gusting 13 23.9
2020-Aug-05 07:27 126 5 gusting 13 24.4
2020-Aug-05 07:22 115 6 gusting 9 23.9
2020-Aug-05 07:17 145 5 gusting 9 24.4
2020-Aug-05 07:12 130 5 gusting 11 24.4
2020-Aug-05 07:07 119 5 gusting 11 23.9
2020-Aug-05 07:02 100 5 gusting 12 23.9
2020-Aug-05 06:56 105 4 gusting 12 23.9
2020-Aug-05 06:51 142 3 gusting 8 23.9
2020-Aug-05 06:46 074 5 gusting 9 23.9
2020-Aug-05 06:41 112 5 gusting 9 23.9
2020-Aug-05 06:36 179 5 gusting 10 23.9
2020-Aug-05 06:31 102 5 gusting 11 23.3
2020-Aug-05 06:26 114 5 gusting 11 23.3
2020-Aug-05 06:21 140 4 gusting 11 23.3
2020-Aug-05 06:16 124 3 gusting 8 23.3
2020-Aug-05 06:11 168 3 gusting 6 23.3
2020-Aug-05 06:06 144 4 gusting 7 22.8
2020-Aug-05 06:01 148 4 gusting 7 22.8
2020-Aug-05 05:56 059 3 gusting 8 22.8
2020-Aug-05 05:51 117 3 gusting 8 22.8
2020-Aug-05 05:46 101 3 gusting 6 22.2
2020-Aug-05 05:41 091 3 gusting 7 22.8
2020-Aug-05 05:36 144 4 gusting 8 22.2
2020-Aug-05 05:31 098 4 gusting 8 22.2
2020-Aug-05 05:26 125 2 gusting 6 22.2
2020-Aug-05 05:21 106 2 gusting 6 22.2
2020-Aug-05 05:16 115 2 gusting 6 22.2
2020-Aug-05 05:11 080 1 gusting 7 22.2
2020-Aug-05 05:06 124 1 gusting 7 22.2
2020-Aug-05 05:01 124 2 gusting 6 21.7
2020-Aug-05 04:56 146 1 gusting 6 21.7
2020-Aug-05 04:51 110 1 gusting 6 21.7
2020-Aug-05 04:46 132 0 gusting 6 21.7
2020-Aug-05 04:41 106 21.7
2020-Aug-05 04:36 145 21.7
2020-Aug-05 04:31 141 21.7
2020-Aug-05 04:26 142 21.7
2020-Aug-05 04:21 194 21.7
2020-Aug-05 04:16 196 21.7
2020-Aug-05 04:11 196 21.1
2020-Aug-05 04:06 205 21.1
2020-Aug-05 04:01 225 21.1
2020-Aug-05 03:56 234 21.1
2020-Aug-05 03:51 209 20.6
2020-Aug-05 03:46 219 21.1
2020-Aug-05 03:41 221 20.6
2020-Aug-05 03:36 256 20.6
2020-Aug-05 03:31 250 20.6
2020-Aug-05 03:26 229 21.1
2020-Aug-05 03:21 215 21.1
2020-Aug-05 03:16 219 21.1
2020-Aug-05 03:11 193 21.1
2020-Aug-05 03:06 200 21.1
2020-Aug-05 03:01 204 21.1
2020-Aug-05 02:56 204 21.1
2020-Aug-05 02:51 204 21.1
2020-Aug-05 02:46 204 21.1
2020-Aug-05 02:41 205 21.7
2020-Aug-05 02:36 205 21.7
2020-Aug-05 02:31 205 21.7
2020-Aug-05 02:26 205 21.7
2020-Aug-05 02:21 205 21.7
2020-Aug-05 02:16 205 21.7
2020-Aug-05 02:11 205 22.2
2020-Aug-05 02:06 204 22.2
2020-Aug-05 02:03 225 22.2
2020-Aug-05 01:56 225 22.2
2020-Aug-05 01:51 225 22.2
2020-Aug-05 01:46 246 21.7
2020-Aug-05 01:41 213 21.7
2020-Aug-05 01:36 274 22.2
2020-Aug-05 01:31 274 22.2
2020-Aug-05 01:26 251 22.2
2020-Aug-05 01:21 200 22.2
2020-Aug-05 01:16 269 22.2
2020-Aug-05 01:11 269 22.2
2020-Aug-05 01:06 269 22.2
2020-Aug-05 01:01 269 22.2
2020-Aug-05 00:56 263 22.2
2020-Aug-05 00:51 263 22.2
2020-Aug-05 00:46 263 22.2
2020-Aug-05 00:41 254 22.8
2020-Aug-05 00:36 254 22.8
2020-Aug-05 00:31 228 22.8
2020-Aug-05 00:26 239 22.8
2020-Aug-05 00:21 239 22.8
2020-Aug-05 00:16 240 22.8
2020-Aug-05 00:11 236 22.8
2020-Aug-05 00:06 264 22.8
2020-Aug-05 00:01 264 22.8
2020-Aug-04 23:56 265 22.8
2020-Aug-04 23:51 237 22.8
2020-Aug-04 23:46 232 23.3
2020-Aug-04 23:40 207 23.3
2020-Aug-04 23:35 206 23.3
2020-Aug-04 23:30 246 22.8
2020-Aug-04 23:25 246 23.3
2020-Aug-04 23:20 251 23.3
2020-Aug-04 23:16 276 23.3
2020-Aug-04 23:11 279 23.3
2020-Aug-04 23:05 265 22.8
2020-Aug-04 23:00 270 22.8
2020-Aug-04 22:55 270 22.8
2020-Aug-04 22:50 267 0 gusting 3 22.8
2020-Aug-04 22:45 265 1 gusting 5 22.8
2020-Aug-04 22:40 254 0 gusting 5 22.8
2020-Aug-04 22:35 271 0 gusting 3 22.8
2020-Aug-04 22:30 265 0 gusting 3 22.8
2020-Aug-04 22:25 261 0 gusting 3 23.3
2020-Aug-04 22:20 252 0 gusting 3 22.8
2020-Aug-04 22:15 270 22.8
2020-Aug-04 22:10 259 23.3
2020-Aug-04 22:05 264 23.3
2020-Aug-04 22:00 267 0 gusting 4 23.3
2020-Aug-04 21:55 259 1 gusting 5 23.3
2020-Aug-04 21:50 268 1 gusting 5 22.8
2020-Aug-04 21:45 284 1 gusting 3 22.8
2020-Aug-04 21:40 265 2 gusting 3 23.3
2020-Aug-04 21:35 248 0 gusting 4 23.3
2020-Aug-04 21:30 239 23.3
2020-Aug-04 21:25 238 22.8
2020-Aug-04 21:20 243 0 gusting 5 22.8
2020-Aug-04 21:15 250 2 gusting 6 23.3
2020-Aug-04 21:10 246 3 gusting 6 23.3
2020-Aug-04 21:05 266 3 gusting 6 23.3
2020-Aug-04 21:00 250 3 gusting 6 22.8
2020-Aug-04 20:55 246 2 gusting 6 22.8
2020-Aug-04 20:50 267 2 gusting 6 23.3
2020-Aug-04 20:45 248 3 gusting 6 22.8
2020-Aug-04 20:40 237 2 gusting 6 22.8
2020-Aug-04 20:35 239 2 gusting 5 22.8
2020-Aug-04 20:30 235 2 gusting 5 22.8
2020-Aug-04 20:25 258 2 gusting 5 22.8
2020-Aug-04 20:20 260 1 gusting 5 22.2
2020-Aug-04 20:15 238 0 gusting 4 22.2
2020-Aug-04 20:10 202 2 gusting 6 22.2
2020-Aug-04 20:05 264 2 gusting 6 22.2
2020-Aug-04 20:00 252 2 gusting 5 22.2
2020-Aug-04 19:55 246 3 gusting 6 22.2
2020-Aug-04 19:50 259 3 gusting 6 22.2
2020-Aug-04 19:45 236 3 gusting 6 22.2
2020-Aug-04 19:40 257 3 gusting 6 22.2
2020-Aug-04 19:35 246 2 gusting 6 22.2
2020-Aug-04 19:25 248 3 gusting 6 22.2
2020-Aug-04 19:20 230 3 gusting 6 22.2
2020-Aug-04 19:15 251 3 gusting 6 22.2
2020-Aug-04 19:10 251 3 gusting 6 22.2
2020-Aug-04 19:05 225 2 gusting 5 22.2
2020-Aug-04 19:00 236 2 gusting 6 21.7
2020-Aug-04 18:55 254 3 gusting 6 22.2
2020-Aug-04 18:50 242 3 gusting 6 22.2
2020-Aug-04 18:45 248 3 gusting 6 22.2
2020-Aug-04 18:40 229 3 gusting 6 21.7
2020-Aug-04 18:35 253 3 gusting 6 22.2
2020-Aug-04 18:30 246 3 gusting 6 22.2
2020-Aug-04 18:25 223 3 gusting 6 22.2
2020-Aug-04 18:20 240 3 gusting 6 21.7
2020-Aug-04 18:15 234 3 gusting 6 21.7
2020-Aug-04 18:10 240 2 gusting 4 21.7
2020-Aug-04 18:05 250 1 gusting 3 21.7
2020-Aug-04 18:00 238 2 gusting 3 21.7
2020-Aug-04 17:55 209 1 gusting 3 21.7
2020-Aug-04 17:50 232 1 gusting 3 22.2
2020-Aug-04 17:45 246 1 gusting 5 22.2
2020-Aug-04 17:40 257 1 gusting 5 22.2
2020-Aug-04 17:35 241 22.2
2020-Aug-04 17:30 223 22.2
2020-Aug-04 17:25 202 22.2
2020-Aug-04 17:20 188 22.8
2020-Aug-04 17:15 254 0 gusting 3 22.8
2020-Aug-04 17:10 198 1 gusting 4 22.8
2020-Aug-04 17:05 200 0 gusting 4 22.8
2020-Aug-04 16:59 207 22.8
2020-Aug-04 16:55 206 0 gusting 4 22.8
2020-Aug-04 16:49 199 0 gusting 4 22.8
2020-Aug-04 16:44 195 0 gusting 3 22.8
2020-Aug-04 16:39 176 1 gusting 4 22.8
2020-Aug-04 16:34 189 1 gusting 4 23.3
2020-Aug-04 16:29 196 0 gusting 4 23.3
2020-Aug-04 16:24 180 0 gusting 4 23.3
2020-Aug-04 16:19 167 1 gusting 4 23.3
2020-Aug-04 16:14 150 1 gusting 3 23.9
2020-Aug-04 16:09 172 1 gusting 4 24.4
2020-Aug-04 16:04 161 1 gusting 4 23.9
2020-Aug-04 15:59 198 1 gusting 4 23.9
2020-Aug-04 15:54 146 1 gusting 5 23.9
2020-Aug-04 15:49 170 2 gusting 5 23.9
2020-Aug-04 15:44 173 2 gusting 6 24.4
2020-Aug-04 15:39 141 1 gusting 6 24.4
2020-Aug-04 15:34 086 1 gusting 5 24.4
2020-Aug-04 15:29 162 2 gusting 6 25.0
2020-Aug-04 15:24 135 3 gusting 6 24.4
2020-Aug-04 15:19 084 2 gusting 6 25.0
2020-Aug-04 15:14 132 2 gusting 6 25.0
2020-Aug-04 15:09 121 2 gusting 6 25.6
2020-Aug-04 15:04 149 3 gusting 6 25.0
2020-Aug-04 14:59 142 3 gusting 7 25.0
2020-Aug-04 14:54 119 3 gusting 7 25.0
2020-Aug-04 14:49 128 4 gusting 6 25.0
2020-Aug-04 14:44 120 3 gusting 6 25.0
2020-Aug-04 14:39 117 3 gusting 6 25.6
2020-Aug-04 14:34 140 3 gusting 6 25.6
2020-Aug-04 14:29 126 4 gusting 6 25.6
2020-Aug-04 14:24 123 3 gusting 6 25.6
2020-Aug-04 14:19 139 3 gusting 7 26.1
2020-Aug-04 14:14 216 3 gusting 7 25.6
2020-Aug-04 14:09 094 3 gusting 7 25.6
2020-Aug-04 14:04 105 4 gusting 8 25.6
2020-Aug-04 13:59 118 3 gusting 8 25.6
2020-Aug-04 13:54 182 3 gusting 8 25.6
2020-Aug-04 13:49 102 3 gusting 8 25.6
2020-Aug-04 13:44 147 3 gusting 7 25.6
2020-Aug-04 13:39 108 3 gusting 7 25.6
2020-Aug-04 13:34 104 3 gusting 7 25.6
2020-Aug-04 13:29 189 3 gusting 7 26.1
2020-Aug-04 13:24 167 3 gusting 7 25.6
2020-Aug-04 13:19 136 3 gusting 8 26.1
2020-Aug-04 13:14 177 3 gusting 8 25.6
2020-Aug-04 13:09 118 3 gusting 8 26.1
2020-Aug-04 13:04 152 2 gusting 8 26.7